Flag for Ecuador Weather past 2 weeks in Quito, Ecuador

Now
57 °F

Scattered showers. Partly sunny.


Feels Like: 53 °F
Forecast: 47 / 68 °F
Wind: 23 mph from South

Location: Latacunga Airport

Current Time: Jul 4, 2015 at 10:46:38 AM

Latest Report: Jul 4, 2015 at 10:00 AM


Visibility: N/A

Pressure: 30.42 "Hg (21.73 "Hg at 2826m altitude)

Humidity: 82%

Dew point: 52 °F

Location of QuitoLocation

Historic Weather in Quito — Graph

°F

Quito temperature yesterday

Maximum temperature yesterday: 70 °F (at 3:00 PM)
Minimum temperature yesterday: 50 °F (at 5:00 AM)
Average temperature yesterday: 60 °F

Past Weeks' High & Low Weather Summary

 TemperatureHumidityPressure
High70 °F (Jul 3, 3:00 PM)100% (Jun 22, 4:00 AM)30.54 "Hg (Jun 22, 4:00 AM)
Low46 °F (Jun 27, 6:00 AM)43% (Jul 3, 12:00 PM)30.30 "Hg (Jul 3, 3:00 PM)
Average54 °F80%30.44 "Hg
* Reported Jun 19 10:00 AM — Jul 4 10:00 AM, Quito, Weather by CustomWeather, © 2015

Note: Actual official high and low records may vary slightly from our data, if they occured in-between our weather recording intervals... More about our weather records

Advertising

Quito weather history for previous 24 hours

 ConditionsComfort  
Time TempWeatherWind HumidityBarometerVisibility
10:00 AM
Sat, Jul 4
57 °FScattered showers. Partly sunny.23 mph82%30.42 "HgN/A
9:00 AM55 °FPartly sunny.21 mph82%30.42 "HgN/A
8:00 AM54 °FPartly sunny.14 mph88%30.39 "HgN/A
7:00 AM52 °FPartly sunny.12 mph94%30.39 "HgN/A
6:00 AM52 °FPassing clouds.12 mph94%30.39 "HgN/A
5:00 AM50 °FPassing clouds.10 mph94%30.33 "HgN/A
4:00 AM52 °FPassing clouds.12 mph88%30.30 "HgN/A
3:00 AM52 °FPassing clouds.14 mph88%30.33 "HgN/A
2:00 AM52 °FPassing clouds.8 mph88%30.33 "HgN/A
1:00 AM54 °FPassing clouds.13 mph82%30.39 "HgN/A
12:00 AM54 °FPassing clouds.16 mph88%30.42 "HgN/A
11:00 PM
Fri, Jul 3
55 °FPassing clouds.13 mph82%30.42 "HgN/A
10:00 PM55 °FPassing clouds.15 mph82%30.39 "HgN/A
9:00 PM55 °FPassing clouds.15 mph82%30.39 "HgN/A
8:00 PM59 °FPassing clouds.12 mph68%30.36 "HgN/A
7:00 PM61 °FPartly cloudy.16 mph63%30.33 "HgN/A
6:00 PM63 °FScattered clouds.24 mph56%30.33 "HgN/A
5:00 PM66 °FScattered clouds.18 mph46%30.30 "HgN/A
4:00 PM68 °FPartly sunny.20 mph43%30.30 "HgN/A
3:00 PM70 °FPassing clouds.23 mph43%30.30 "HgN/A
2:00 PM68 °FPassing clouds.21 mph46%30.33 "HgN/A
1:00 PM68 °FPassing clouds.18 mph46%30.33 "HgN/A
12:00 PM66 °FPassing clouds.16 mph43%30.39 "HgN/A
11:00 AM63 °FPassing clouds.18 mph56%30.42 "HgN/A
10:00 AM59 °FPassing clouds.20 mph68%30.45 "HgN/A
Weather by CustomWeather, © 2015

See weather overviewHow to use our weather pages